AIC255 VABB-OMDB

Flight info

Callsign AIC255
Flight time 2h 33m
Altitude 40000
Route RAXET2AXSAKUN/27 SAKUN V2 SUGID N571 VUSET A454 PASOV B540 KUPMA/N0442F240 B540 MIVEK P574 IMPED
Aircraft A359/H-SDE2E3GHIJ3J4J5LM1ORWXY/LB1D1

Departure

Time 2026-05-04 07:51
Airport Chhatrapati Shivaji Maharaj International Airport (VABB)

Arrival

Time 2026-05-04 10:25
Airport Dubai International Airport (OMDB)
Time Latitude Longitude Altitude Speed Heading
2026-05-04 07:33 19.09507 72.87123 39 ft 0 kts 130°
2026-05-04 07:40 19.09512 72.87116 39 ft 3 kts 130°
2026-05-04 07:40 19.09524 72.87102 37 ft 3 kts 140°
2026-05-04 07:41 19.09540 72.87091 59 ft 3 kts 160°
2026-05-04 07:41 19.09559 72.87087 34 ft 3 kts 181°
2026-05-04 07:41 19.09570 72.87088 36 ft 0 kts 190°
2026-05-04 07:42 19.09575 72.87089 36 ft 3 kts 196°
2026-05-04 07:42 19.09590 72.87093 36 ft 2 kts 196°
2026-05-04 07:42 19.09607 72.87099 36 ft 3 kts 211°
2026-05-04 07:43 19.09620 72.87110 35 ft 0 kts 227°
2026-05-04 07:45 19.09597 72.87083 36 ft 9 kts 228°
2026-05-04 07:45 19.09538 72.87016 38 ft 14 kts 227°
2026-05-04 07:45 19.09470 72.86938 39 ft 15 kts 227°
2026-05-04 07:45 19.09394 72.86881 39 ft 12 kts 186°
2026-05-04 07:46 19.09335 72.86909 39 ft 6 kts 142°
2026-05-04 07:46 19.09296 72.86944 39 ft 9 kts 137°
2026-05-04 07:46 19.09251 72.86999 39 ft 11 kts 119°
2026-05-04 07:46 19.09202 72.87064 39 ft 12 kts 154°
2026-05-04 07:47 19.09148 72.87130 39 ft 13 kts 104°
2026-05-04 07:47 19.09128 72.87232 39 ft 15 kts 122°
2026-05-04 07:47 19.09057 72.87312 39 ft 16 kts 108°
2026-05-04 07:49 19.09049 72.88032 38 ft 8 kts 129°
2026-05-04 07:49 19.08994 72.88049 37 ft 10 kts 175°
2026-05-04 07:49 19.08911 72.88044 36 ft 12 kts 207°
2026-05-04 07:50 19.08888 72.87966 36 ft 12 kts 269°
2026-05-04 07:50 19.08888 72.87951 36 ft 0 kts 269°
2026-05-04 07:50 19.08887 72.87905 37 ft 29 kts 269°
2026-05-04 07:50 19.08878 72.87404 38 ft 102 kts 269°
2026-05-04 07:51 19.08863 72.86426 59 ft 159 kts 267°
2026-05-04 07:51 19.08853 72.85282 775 ft 160 kts 266°
2026-05-04 07:51 19.08824 72.84047 1337 ft 176 kts 267°
2026-05-04 07:51 19.08775 72.82701 1850 ft 192 kts 266°
2026-05-04 07:52 19.08759 72.81199 2214 ft 217 kts 268°
2026-05-04 07:52 19.08752 72.79638 2645 ft 236 kts 268°
2026-05-04 07:52 19.08735 72.77871 3367 ft 244 kts 269°
2026-05-04 07:52 19.08708 72.76046 4087 ft 250 kts 270°
2026-05-04 07:53 19.08782 72.74196 4834 ft 254 kts 277°
2026-05-04 07:54 19.10041 72.62766 9178 ft 283 kts 278°
2026-05-04 07:55 19.10267 72.60671 9923 ft 289 kts 278°
2026-05-04 07:55 19.10500 72.58510 10399 ft 305 kts 278°
2026-05-04 07:55 19.10750 72.56211 10750 ft 324 kts 278°
2026-05-04 07:55 19.11008 72.53806 11143 ft 339 kts 277°
2026-05-04 07:56 19.11278 72.51271 11693 ft 347 kts 277°
2026-05-04 07:56 19.11551 72.48707 12305 ft 353 kts 277°
2026-05-04 07:56 19.11824 72.46141 12928 ft 358 kts 277°
2026-05-04 07:56 19.12104 72.43512 13575 ft 362 kts 276°
2026-05-04 07:57 19.12388 72.40852 14182 ft 365 kts 276°
2026-05-04 07:57 19.12673 72.38169 14781 ft 368 kts 276°
2026-05-04 07:57 19.12958 72.35479 15368 ft 371 kts 276°
2026-05-04 07:57 19.13247 72.32746 15975 ft 374 kts 276°
2026-05-04 07:58 19.13538 72.30001 16571 ft 377 kts 276°
2026-05-04 07:58 19.13831 72.27236 17166 ft 381 kts 276°
2026-05-04 07:58 19.14127 72.24428 17770 ft 385 kts 276°
2026-05-04 07:58 19.14426 72.21595 18366 ft 388 kts 276°
2026-05-04 07:59 19.14722 72.18772 18939 ft 390 kts 276°
2026-05-04 07:59 19.15024 72.15904 19502 ft 393 kts 276°
2026-05-04 07:59 19.15332 72.13013 20072 ft 396 kts 277°
2026-05-04 07:59 19.15843 72.10161 20641 ft 399 kts 285°
2026-05-04 08:00 19.16844 72.07402 21219 ft 402 kts 296°
2026-05-04 08:00 19.18141 72.04769 21791 ft 404 kts 298°
2026-05-04 08:00 19.19463 72.02182 22354 ft 407 kts 298°
2026-05-04 08:02 19.29023 71.83229 25861 ft 425 kts 298°
2026-05-04 08:02 19.30400 71.80486 26347 ft 428 kts 298°
2026-05-04 08:02 19.31798 71.77700 26823 ft 431 kts 298°
2026-05-04 08:03 19.33215 71.74876 27292 ft 434 kts 298°
2026-05-04 08:03 19.34636 71.72041 27769 ft 436 kts 298°
2026-05-04 08:03 19.36059 71.69201 28231 ft 439 kts 298°
2026-05-04 08:03 19.37495 71.66335 28688 ft 442 kts 298°
2026-05-04 08:04 19.38942 71.63444 29132 ft 445 kts 298°
2026-05-04 08:04 19.40397 71.60536 29574 ft 447 kts 298°
2026-05-04 08:04 19.41856 71.57618 29987 ft 450 kts 298°
2026-05-04 08:04 19.43309 71.54712 30325 ft 453 kts 298°
2026-05-04 08:05 19.44788 71.51752 30651 ft 456 kts 298°
2026-05-04 08:05 19.46274 71.48776 30979 ft 459 kts 298°
2026-05-04 08:05 19.47768 71.45782 31302 ft 461 kts 298°
2026-05-04 08:05 19.49277 71.42757 31641 ft 464 kts 298°
2026-05-04 08:06 19.50783 71.39735 31961 ft 466 kts 298°
2026-05-04 08:06 19.52309 71.36674 32274 ft 468 kts 298°
2026-05-04 08:06 19.53834 71.33611 32574 ft 470 kts 298°
2026-05-04 08:06 19.55358 71.30550 32872 ft 472 kts 298°
2026-05-04 08:08 19.64469 71.08013 35111 ft 474 kts 288°
2026-05-04 08:08 19.65483 71.04691 35477 ft 473 kts 288°
2026-05-04 08:10 19.73626 70.78437 38064 ft 464 kts 288°
2026-05-04 08:11 19.74637 70.75184 38381 ft 463 kts 288°
2026-05-04 08:11 19.76649 70.68700 38864 ft 462 kts 288°
2026-05-04 08:11 19.77653 70.65459 39054 ft 462 kts 288°
2026-05-04 08:12 19.78655 70.62222 39254 ft 462 kts 288°
2026-05-04 08:12 19.79658 70.58983 39450 ft 462 kts 288°
2026-05-04 08:12 19.80659 70.55746 39645 ft 461 kts 288°
2026-05-04 08:12 19.81647 70.52548 39795 ft 462 kts 288°
2026-05-04 08:13 19.83650 70.46058 39820 ft 461 kts 288°
2026-05-04 08:13 19.85459 70.39534 39820 ft 461 kts 281°
2026-05-04 08:14 19.85752 70.32750 39830 ft 462 kts 264°
2026-05-04 08:16 19.77967 70.06603 39831 ft 466 kts 253°
2026-05-04 08:16 19.75987 70.00370 39809 ft 466 kts 253°
2026-05-04 08:17 19.73915 69.93843 39811 ft 467 kts 253°
2026-05-04 08:17 19.71838 69.87309 39805 ft 467 kts 253°
2026-05-04 08:19 19.63487 69.61154 39801 ft 468 kts 253°
2026-05-04 08:20 19.61406 69.54659 39805 ft 468 kts 253°
2026-05-04 08:20 19.59305 69.48113 39815 ft 468 kts 253°
2026-05-04 08:21 19.57364 69.41527 39818 ft 467 kts 259°
2026-05-04 08:21 19.56900 69.34716 39818 ft 464 kts 276°
2026-05-04 08:22 19.58442 69.28079 39811 ft 464 kts 293°
2026-05-04 08:24 19.70151 69.03648 39819 ft 465 kts 296°
2026-05-04 08:24 19.73088 68.97513 39804 ft 466 kts 296°
2026-05-04 08:25 19.76020 68.91380 39799 ft 465 kts 296°
2026-05-04 08:25 19.78949 68.85251 39801 ft 465 kts 296°
2026-05-04 08:27 19.90637 68.60734 39809 ft 466 kts 296°
2026-05-04 08:28 19.93566 68.54574 39813 ft 466 kts 296°
2026-05-04 08:28 19.96484 68.48429 39812 ft 466 kts 296°
2026-05-04 08:29 19.99403 68.42276 39794 ft 466 kts 296°
2026-05-04 08:31 20.11046 68.17666 39807 ft 466 kts 296°
2026-05-04 08:33 20.22658 67.93011 39797 ft 466 kts 296°
2026-05-04 08:35 20.33775 67.69305 39798 ft 466 kts 296°
2026-05-04 08:35 20.36663 67.63129 39790 ft 466 kts 296°
2026-05-04 08:37 20.46751 67.41503 39794 ft 466 kts 296°
2026-05-04 08:38 20.49635 67.35306 39788 ft 466 kts 296°
2026-05-04 08:38 20.52513 67.29114 39787 ft 466 kts 296°
2026-05-04 08:40 20.63994 67.04339 39787 ft 465 kts 295°
2026-05-04 08:41 20.66840 66.98180 39784 ft 465 kts 295°
2026-05-04 08:41 20.69705 66.91973 39784 ft 465 kts 295°
2026-05-04 08:42 20.72572 66.85755 39782 ft 465 kts 295°
2026-05-04 08:42 20.75427 66.79556 39783 ft 466 kts 295°
2026-05-04 08:43 20.78270 66.73374 39783 ft 465 kts 295°
2026-05-04 08:43 20.81128 66.67155 39780 ft 465 kts 295°
2026-05-04 08:44 20.83830 66.61268 39779 ft 465 kts 295°
2026-05-04 08:46 20.95191 66.36440 39780 ft 465 kts 295°
2026-05-04 08:46 20.98030 66.30218 39779 ft 465 kts 295°
2026-05-04 08:47 21.00871 66.23983 39776 ft 465 kts 295°
2026-05-04 08:47 21.03688 66.17795 39778 ft 465 kts 295°
2026-05-04 08:48 21.06525 66.11557 39780 ft 465 kts 295°
2026-05-04 08:48 21.09352 66.05331 39782 ft 465 kts 295°
2026-05-04 08:49 21.12175 65.99109 39777 ft 464 kts 295°
2026-05-04 08:50 21.22359 65.77527 39776 ft 464 kts 296°
2026-05-04 08:51 21.25264 65.71344 39776 ft 464 kts 296°
2026-05-04 08:51 21.28164 65.65162 39774 ft 464 kts 296°
2026-05-04 08:52 21.31062 65.58977 39773 ft 464 kts 296°
2026-05-04 08:52 21.33963 65.52780 39774 ft 464 kts 296°
2026-05-04 08:54 21.45498 65.28068 39773 ft 463 kts 295°
2026-05-04 08:55 21.48379 65.21877 39772 ft 463 kts 295°
2026-05-04 08:55 21.50194 65.17975 39770 ft 463 kts 295°
2026-05-04 09:01 21.80080 64.53271 39765 ft 461 kts 295°
2026-05-04 09:01 21.82920 64.47079 39768 ft 461 kts 295°
2026-05-04 09:02 21.85741 64.40922 39768 ft 461 kts 295°
2026-05-04 09:02 21.88576 64.34728 39765 ft 461 kts 295°
2026-05-04 09:03 21.91409 64.28528 39764 ft 461 kts 295°
2026-05-04 09:03 21.94232 64.22345 39765 ft 461 kts 295°
2026-05-04 09:04 21.97062 64.16138 39759 ft 461 kts 295°
2026-05-04 09:04 21.99873 64.09965 39761 ft 461 kts 295°
2026-05-04 09:05 22.02691 64.03768 39758 ft 461 kts 295°
2026-05-04 09:05 22.05512 63.97559 39758 ft 460 kts 295°
2026-05-04 09:06 22.08327 63.91354 39761 ft 460 kts 295°
2026-05-04 09:08 22.19538 63.66568 39758 ft 460 kts 295°
2026-05-04 09:08 22.22340 63.60355 39758 ft 460 kts 295°
2026-05-04 09:09 22.25140 63.54138 39763 ft 460 kts 295°
2026-05-04 09:09 22.27923 63.47951 39761 ft 460 kts 295°
2026-05-04 09:10 22.30714 63.41737 39757 ft 460 kts 295°
2026-05-04 09:10 22.33503 63.35522 39756 ft 460 kts 295°
2026-05-04 09:11 22.36290 63.29303 39759 ft 460 kts 295°
2026-05-04 09:11 22.39072 63.23088 39757 ft 460 kts 295°
2026-05-04 09:12 22.41855 63.16861 39757 ft 460 kts 295°
2026-05-04 09:14 22.52229 62.91064 39754 ft 474 kts 292°
2026-05-04 09:14 22.54784 62.84479 39755 ft 474 kts 292°
2026-05-04 09:15 22.57345 62.77904 39756 ft 474 kts 292°
2026-05-04 09:15 22.59905 62.71323 39753 ft 474 kts 292°
2026-05-04 09:17 22.71367 62.41710 39756 ft 474 kts 292°
2026-05-04 09:18 22.73910 62.35113 39753 ft 474 kts 292°
2026-05-04 09:18 22.76436 62.28551 39750 ft 475 kts 292°
2026-05-04 09:19 22.78972 62.21954 39749 ft 475 kts 292°
2026-05-04 09:19 22.81515 62.15327 39746 ft 475 kts 292°
2026-05-04 09:20 22.84037 62.08748 39746 ft 475 kts 292°
2026-05-04 09:20 22.86574 62.02120 39750 ft 475 kts 292°
2026-05-04 09:21 22.89102 61.95505 39744 ft 475 kts 292°
2026-05-04 09:21 22.91625 61.88892 39745 ft 475 kts 292°
2026-05-04 09:22 22.94146 61.82276 39743 ft 474 kts 292°
2026-05-04 09:22 22.96241 61.76773 39745 ft 474 kts 292°
2026-05-04 09:23 22.98760 61.70145 39742 ft 474 kts 292°
2026-05-04 09:23 23.01273 61.63523 39744 ft 473 kts 292°
2026-05-04 09:25 23.10386 61.39425 39737 ft 473 kts 292°
2026-05-04 09:26 23.12859 61.32864 39741 ft 473 kts 292°
2026-05-04 09:26 23.15350 61.26246 39742 ft 473 kts 292°
2026-05-04 09:27 23.17835 61.19632 39740 ft 473 kts 292°
2026-05-04 09:27 23.20321 61.13008 39734 ft 473 kts 292°
2026-05-04 09:28 23.22804 61.06381 39733 ft 473 kts 292°
2026-05-04 09:28 23.25282 60.99756 39735 ft 473 kts 292°
2026-05-04 09:29 23.27749 60.93154 39732 ft 473 kts 292°
2026-05-04 09:29 23.30227 60.86508 39735 ft 473 kts 292°
2026-05-04 09:30 23.32694 60.79886 39736 ft 473 kts 292°
2026-05-04 09:30 23.35161 60.73251 39734 ft 473 kts 291°
2026-05-04 09:31 23.37625 60.66616 39732 ft 473 kts 291°
2026-05-04 09:31 23.40083 60.59971 39737 ft 473 kts 291°
2026-05-04 09:32 23.42515 60.53316 39730 ft 473 kts 291°
2026-05-04 09:34 23.52206 60.26726 39732 ft 472 kts 291°
2026-05-04 09:34 23.54621 60.20079 39733 ft 472 kts 291°
2026-05-04 09:35 23.57042 60.13407 39734 ft 473 kts 291°
2026-05-04 09:35 23.59459 60.06735 39733 ft 473 kts 291°
2026-05-04 09:37 23.69086 59.80058 39734 ft 473 kts 291°
2026-05-04 09:38 23.71475 59.73413 39734 ft 473 kts 291°
2026-05-04 09:38 23.73889 59.66686 39734 ft 473 kts 291°
2026-05-04 09:39 23.76273 59.60033 39736 ft 473 kts 291°
2026-05-04 09:39 23.78663 59.53355 39735 ft 473 kts 291°
2026-05-04 09:40 23.81054 59.46661 39736 ft 473 kts 291°
2026-05-04 09:40 23.83433 59.39991 39741 ft 473 kts 291°
2026-05-04 09:42 23.92953 59.13192 39739 ft 472 kts 291°
2026-05-04 09:43 23.95190 59.06484 39739 ft 472 kts 289°
2026-05-04 09:43 23.97316 58.99696 39737 ft 472 kts 289°
2026-05-04 09:44 23.99457 58.92899 39736 ft 472 kts 289°
2026-05-04 09:46 24.08110 58.65772 39740 ft 472 kts 289°
2026-05-04 09:46 24.10252 58.59034 39739 ft 472 kts 289°
2026-05-04 09:47 24.12423 58.52210 39740 ft 472 kts 289°
2026-05-04 09:49 24.20980 58.25096 39739 ft 471 kts 289°
2026-05-04 09:51 24.28419 58.01392 39736 ft 470 kts 289°
2026-05-04 09:51 24.30542 57.94599 39737 ft 470 kts 289°
2026-05-04 09:52 24.32658 57.87818 39734 ft 470 kts 289°
2026-05-04 09:52 24.34780 57.81006 39734 ft 470 kts 288°
2026-05-04 09:53 24.36877 57.74261 39732 ft 470 kts 288°
2026-05-04 09:53 24.38982 57.67479 39732 ft 470 kts 288°
2026-05-04 09:54 24.40509 57.62552 39733 ft 470 kts 288°
2026-05-04 09:54 24.42610 57.55762 39728 ft 470 kts 288°
2026-05-04 09:55 24.44672 57.49096 39730 ft 470 kts 288°
2026-05-04 09:55 24.46582 57.42913 39729 ft 470 kts 288°
2026-05-04 09:56 24.48658 57.36156 39726 ft 469 kts 288°
2026-05-04 09:56 24.49703 57.32753 39608 ft 469 kts 288°
2026-05-04 09:56 24.50741 57.29374 39237 ft 464 kts 288°
2026-05-04 09:56 24.51764 57.26038 38475 ft 455 kts 288°
2026-05-04 09:57 24.52765 57.22773 37286 ft 453 kts 288°
2026-05-04 09:57 24.53774 57.19479 36615 ft 453 kts 288°
2026-05-04 09:57 24.54777 57.16202 35925 ft 454 kts 288°
2026-05-04 09:57 24.55786 57.12905 35221 ft 454 kts 288°
2026-05-04 09:58 24.56795 57.09602 34486 ft 456 kts 288°
2026-05-04 09:58 24.57806 57.06291 33637 ft 459 kts 288°
2026-05-04 09:58 24.58823 57.02956 32720 ft 462 kts 288°
2026-05-04 10:00 24.66706 56.80291 27986 ft 442 kts 299°
2026-05-04 10:00 24.68266 56.77401 27386 ft 439 kts 300°
2026-05-04 10:02 24.79137 56.57783 23202 ft 423 kts 301°
2026-05-04 10:04 24.88387 56.38311 18880 ft 408 kts 276°
2026-05-04 10:04 24.88458 56.35194 18249 ft 407 kts 272°
2026-05-04 10:04 24.88339 56.32074 17563 ft 406 kts 269°
2026-05-04 10:04 24.88147 56.28970 16913 ft 402 kts 269°
2026-05-04 10:05 24.88300 56.25960 16287 ft 395 kts 282°
2026-05-04 10:05 24.89160 56.23090 15661 ft 388 kts 296°
2026-05-04 10:05 24.90388 56.20492 15052 ft 385 kts 300°
2026-05-04 10:05 24.91687 56.17917 14443 ft 381 kts 300°
2026-05-04 10:06 24.92978 56.15384 13848 ft 378 kts 300°
2026-05-04 10:06 24.94261 56.12878 13194 ft 375 kts 300°
2026-05-04 10:06 24.95539 56.10379 12608 ft 370 kts 300°
2026-05-04 10:08 25.04921 55.97572 9362 ft 352 kts 312°
2026-05-04 10:08 25.06555 55.95579 8764 ft 349 kts 312°
2026-05-04 10:08 25.08179 55.93598 8200 ft 347 kts 312°
2026-05-04 10:08 25.09786 55.91626 7619 ft 344 kts 311°
2026-05-04 10:09 25.11378 55.89672 7067 ft 341 kts 311°
2026-05-04 10:09 25.12955 55.87736 6513 ft 338 kts 311°
2026-05-04 10:09 25.14528 55.85803 5965 ft 336 kts 312°
2026-05-04 10:09 25.16124 55.83937 5552 ft 333 kts 316°
2026-05-04 10:10 25.17072 55.83110 5347 ft 334 kts 325°
2026-05-04 10:10 25.19162 55.82106 4970 ft 335 kts 346°
2026-05-04 10:10 25.21480 55.82006 4625 ft 338 kts
2026-05-04 10:10 25.24328 55.83398 4483 ft 345 kts 36°
2026-05-04 10:11 25.25497 55.84652 4483 ft 348 kts 49°
2026-05-04 10:11 25.26592 55.86998 4494 ft 350 kts 72°
2026-05-04 10:11 25.26815 55.89591 4471 ft 332 kts 97°
2026-05-04 10:11 25.25584 55.92501 4481 ft 306 kts 135°
2026-05-04 10:12 25.24509 55.93462 4475 ft 293 kts 147°
2026-05-04 10:12 25.22805 55.94656 4467 ft 284 kts 155°
2026-05-04 10:12 25.20960 55.95258 4475 ft 279 kts 178°
2026-05-04 10:12 25.19076 55.94914 4487 ft 274 kts 206°
2026-05-04 10:13 25.17386 55.93946 4477 ft 272 kts 213°
2026-05-04 10:13 25.15748 55.92889 4486 ft 273 kts 213°
2026-05-04 10:13 25.14112 55.91826 4480 ft 273 kts 213°
2026-05-04 10:13 25.12468 55.90762 4487 ft 273 kts 213°
2026-05-04 10:14 25.10848 55.89715 4489 ft 274 kts 213°
2026-05-04 10:14 25.09208 55.88650 4484 ft 273 kts 213°
2026-05-04 10:16 25.01551 55.78705 4507 ft 261 kts 296°
2026-05-04 10:16 25.02533 55.77026 4499 ft 262 kts 306°
2026-05-04 10:16 25.03563 55.75356 4492 ft 263 kts 303°
2026-05-04 10:16 25.04548 55.73656 4492 ft 263 kts 302°
2026-05-04 10:17 25.05506 55.71962 4496 ft 264 kts 302°
2026-05-04 10:17 25.06485 55.70226 4493 ft 264 kts 302°
2026-05-04 10:19 25.12620 55.59238 3778 ft 194 kts 302°
2026-05-04 10:19 25.13317 55.57990 3654 ft 191 kts 301°
2026-05-04 10:19 25.14000 55.56761 3558 ft 190 kts 301°
2026-05-04 10:19 25.14690 55.55523 3396 ft 190 kts 301°
2026-05-04 10:20 25.15351 55.54334 3159 ft 190 kts 301°
2026-05-04 10:20 25.16036 55.53100 2901 ft 187 kts 301°
2026-05-04 10:20 25.16717 55.51879 2782 ft 183 kts 301°
2026-05-04 10:20 25.17361 55.50715 2652 ft 172 kts 301°
2026-05-04 10:21 25.17964 55.49627 2518 ft 161 kts 302°
2026-05-04 10:21 25.18531 55.48614 2321 ft 150 kts 302°
2026-05-04 10:21 25.19072 55.47653 2152 ft 142 kts 302°
2026-05-04 10:21 25.19574 55.46748 1846 ft 139 kts 300°
2026-05-04 10:22 25.20589 55.44905 1242 ft 141 kts 298°
2026-05-04 10:22 25.21086 55.43950 986 ft 143 kts 298°
2026-05-04 10:22 25.21617 55.43048 792 ft 136 kts 301°
2026-05-04 10:23 25.22105 55.42184 669 ft 130 kts 300°
2026-05-04 10:23 25.22575 55.41344 467 ft 127 kts 301°
2026-05-04 10:25 25.24780 55.37271 36 ft 31 kts 278°
2026-05-04 10:25 25.24792 55.37042 32 ft 30 kts 268°
2026-05-04 10:25 25.24697 55.36906 31 ft 16 kts 204°
2026-05-04 10:25 25.24598 55.36945 33 ft 14 kts 141°
2026-05-04 10:26 25.24587 55.36950 33 ft 0 kts 156°
2026-05-04 10:26 25.24586 55.36951 33 ft 0 kts 156°
2026-05-04 10:26 25.24580 55.36955 33 ft 2 kts 150°
2026-05-04 10:26 25.24568 55.36959 33 ft 0 kts 163°